Powrót do katalogu

STARLINK-31962

AktywnyŁącznośćVLEO
NORAD 59936·PAYLOAD·🇺🇸 United States

Wystrzelony Jun 1, 2024 z Cape Canaveral Space Force Station

Loading…

Następne Przeloty (najbliższe 24 godziny)

TLE

ŚwieżeSource: CelesTrak SupGP

Epoka: Sep 14, 2026, 20:56 UTC

1 59936C 24106Q   26257.87270833 -.00010874  00000+0 -39395-3 0  2575
2 59936  43.0029 344.4207 0001613 279.1822  34.3168 15.27574714    17

Śledź STARLINK-31962 w czasie rzeczywistym z AllMySat

Download on the App Store